AAL805 KIAD-KBOS

Flight info

Callsign AAL805
Flight time 1h 11m
Altitude 39000
Route JCOBY4 SWANN BROSS Q419 JFK ROBUC3
Aircraft A20N/M-SDE2E3FGHIRWXY/LB1

Departure

Time 2026-05-07 00:52
Airport Washington Dulles International Airport (KIAD)

Arrival

Time 2026-05-07 02:03
Airport Boston Logan International Airport (KBOS)
Time Latitude Longitude Altitude Speed Heading
2026-05-07 00:25 38.94579 -77.45198 295 ft 0 kts 161°
2026-05-07 00:39 38.94578 -77.45197 295 ft 0 kts 162°
2026-05-07 00:39 38.94577 -77.45197 295 ft 0 kts 162°
2026-05-07 00:40 38.94585 -77.45200 295 ft 2 kts 161°
2026-05-07 00:40 38.94599 -77.45207 295 ft 2 kts 162°
2026-05-07 00:40 38.94614 -77.45209 295 ft 2 kts 184°
2026-05-07 00:40 38.94629 -77.45206 294 ft 2 kts 200°
2026-05-07 00:41 38.94642 -77.45197 294 ft 2 kts 216°
2026-05-07 00:41 38.94653 -77.45184 294 ft 2 kts 233°
2026-05-07 00:41 38.94661 -77.45169 294 ft 2 kts 249°
2026-05-07 00:41 38.94664 -77.45150 294 ft 2 kts 265°
2026-05-07 00:42 38.94665 -77.45140 294 ft 1 kts 275°
2026-05-07 00:42 38.94664 -77.45134 294 ft 0 kts 274°
2026-05-07 00:44 38.94665 -77.45154 294 ft 4 kts 274°
2026-05-07 00:44 38.94668 -77.45216 294 ft 9 kts 270°
2026-05-07 00:44 38.94667 -77.45319 294 ft 13 kts 271°
2026-05-07 00:44 38.94669 -77.45451 291 ft 15 kts 271°
2026-05-07 00:45 38.94669 -77.45515 290 ft 0 kts 271°
2026-05-07 00:45 38.94669 -77.45518 290 ft 0 kts 271°
2026-05-07 00:45 38.94669 -77.45519 290 ft 0 kts 271°
2026-05-07 00:45 38.94669 -77.45544 290 ft 5 kts 266°
2026-05-07 00:46 38.94647 -77.45599 291 ft 9 kts 215°
2026-05-07 00:46 38.94575 -77.45609 291 ft 12 kts 180°
2026-05-07 00:46 38.94473 -77.45610 291 ft 16 kts 181°
2026-05-07 00:46 38.94349 -77.45613 293 ft 18 kts 181°
2026-05-07 00:47 38.94221 -77.45616 294 ft 18 kts 180°
2026-05-07 00:47 38.94094 -77.45616 293 ft 18 kts 181°
2026-05-07 00:47 38.93960 -77.45617 291 ft 19 kts 178°
2026-05-07 00:47 38.93858 -77.45619 290 ft 11 kts 182°
2026-05-07 00:48 38.93773 -77.45622 289 ft 13 kts 181°
2026-05-07 00:48 38.93686 -77.45581 288 ft 14 kts 135°
2026-05-07 00:48 38.93618 -77.45498 286 ft 13 kts 161°
2026-05-07 00:48 38.93525 -77.45526 284 ft 14 kts 202°
2026-05-07 00:49 38.93474 -77.45551 283 ft 0 kts 201°
2026-05-07 00:50 38.93473 -77.45552 283 ft 0 kts 201°
2026-05-07 00:50 38.93457 -77.45560 283 ft 4 kts 201°
2026-05-07 00:51 38.93418 -77.45579 282 ft 7 kts 200°
2026-05-07 00:51 38.93377 -77.45631 282 ft 9 kts 263°
2026-05-07 00:51 38.93382 -77.45666 282 ft 0 kts 291°
2026-05-07 00:51 38.93403 -77.45735 282 ft 35 kts 291°
2026-05-07 00:52 38.93586 -77.46356 289 ft 109 kts 291°
2026-05-07 00:52 38.93924 -77.47508 313 ft 164 kts 290°
2026-05-07 00:52 38.94316 -77.48868 1024 ft 158 kts 293°
2026-05-07 00:52 38.94944 -77.49981 1682 ft 165 kts 332°
2026-05-07 00:53 38.96145 -77.50105 2165 ft 194 kts 18°
2026-05-07 00:53 38.97308 -77.49074 2724 ft 217 kts 36°
2026-05-07 00:53 38.98497 -77.47780 3245 ft 234 kts 36°
2026-05-07 00:53 38.99809 -77.46410 3767 ft 252 kts 35°
2026-05-07 00:54 39.01232 -77.44971 4284 ft 270 kts 34°
2026-05-07 00:54 39.02761 -77.43459 4906 ft 284 kts 34°
2026-05-07 00:54 39.04333 -77.41916 5654 ft 292 kts 34°
2026-05-07 00:54 39.05961 -77.40328 6402 ft 300 kts 34°
2026-05-07 00:55 39.07653 -77.38680 7180 ft 307 kts 33°
2026-05-07 00:55 39.09340 -77.37034 7997 ft 311 kts 33°
2026-05-07 00:55 39.11089 -77.35330 8764 ft 317 kts 32°
2026-05-07 00:55 39.12853 -77.33614 9508 ft 322 kts 32°
2026-05-07 00:56 39.14554 -77.31673 10197 ft 336 kts 50°
2026-05-07 00:56 39.15541 -77.28940 10817 ft 349 kts 80°
2026-05-07 00:56 39.15507 -77.25816 11448 ft 352 kts 105°
2026-05-07 00:56 39.14891 -77.22782 12147 ft 355 kts 110°
2026-05-07 00:57 39.14191 -77.19736 12862 ft 359 kts 109°
2026-05-07 00:57 39.13549 -77.16600 13602 ft 364 kts 106°
2026-05-07 00:57 39.13000 -77.13458 14266 ft 369 kts 104°
2026-05-07 00:57 39.12477 -77.10169 14890 ft 376 kts 104°
2026-05-07 00:58 39.11964 -77.06879 15496 ft 383 kts 104°
2026-05-07 00:58 39.11427 -77.03489 16087 ft 389 kts 104°
2026-05-07 00:58 39.10945 -77.00041 16687 ft 396 kts 99°
2026-05-07 00:58 39.10728 -76.96503 17286 ft 402 kts 91°
2026-05-07 00:59 39.10880 -76.89269 18533 ft 410 kts 87°
2026-05-07 00:59 39.11007 -76.85608 18848 ft 415 kts 87°
2026-05-07 00:59 39.11123 -76.81863 18897 ft 416 kts 87°
2026-05-07 01:00 39.11227 -76.78178 18898 ft 415 kts 88°
2026-05-07 01:00 39.11321 -76.74466 18898 ft 412 kts 88°
2026-05-07 01:00 39.11410 -76.70816 18898 ft 407 kts 88°
2026-05-07 01:00 39.11498 -76.67163 18899 ft 407 kts 88°
2026-05-07 01:01 39.11581 -76.63546 18971 ft 409 kts 88°
2026-05-07 01:01 39.11666 -76.59853 19416 ft 415 kts 88°
2026-05-07 01:01 39.11752 -76.56146 20025 ft 418 kts 88°
2026-05-07 01:01 39.11875 -76.52439 20585 ft 422 kts 84°
2026-05-07 01:02 39.12198 -76.48655 21076 ft 428 kts 81°
2026-05-07 01:02 39.12627 -76.44859 21593 ft 433 kts 79°
2026-05-07 01:02 39.13089 -76.40993 22099 ft 439 kts 79°
2026-05-07 01:02 39.13543 -76.37106 22609 ft 444 kts 79°
2026-05-07 01:03 39.14006 -76.33130 22978 ft 454 kts 81°
2026-05-07 01:03 39.14459 -76.29077 23433 ft 460 kts 81°
2026-05-07 01:03 39.14911 -76.25037 23919 ft 464 kts 80°
2026-05-07 01:03 39.15379 -76.20892 24445 ft 467 kts 80°
2026-05-07 01:04 39.15850 -76.16798 24934 ft 471 kts 81°
2026-05-07 01:04 39.16336 -76.12578 25434 ft 474 kts 81°
2026-05-07 01:04 39.16821 -76.08405 25880 ft 479 kts 81°
2026-05-07 01:04 39.17308 -76.04131 26330 ft 483 kts 81°
2026-05-07 01:05 39.17783 -75.99892 26914 ft 482 kts 80°
2026-05-07 01:05 39.18272 -75.95615 27509 ft 481 kts 80°
2026-05-07 01:05 39.18795 -75.91396 27983 ft 482 kts 74°
2026-05-07 01:05 39.20004 -75.87425 28313 ft 473 kts 50°
2026-05-07 01:06 39.22055 -75.84308 28686 ft 453 kts 31°
2026-05-07 01:06 39.24480 -75.81723 29078 ft 451 kts 27°
2026-05-07 01:06 39.26969 -75.79214 29432 ft 454 kts 26°
2026-05-07 01:06 39.29437 -75.76683 29782 ft 459 kts 27°
2026-05-07 01:07 39.31916 -75.74065 30007 ft 466 kts 28°
2026-05-07 01:07 39.34410 -75.71374 30208 ft 474 kts 28°
2026-05-07 01:07 39.36952 -75.68594 30523 ft 477 kts 30°
2026-05-07 01:07 39.39478 -75.65813 30831 ft 480 kts 30°
2026-05-07 01:08 39.42034 -75.62991 31114 ft 484 kts 29°
2026-05-07 01:08 39.44575 -75.60192 31418 ft 486 kts 29°
2026-05-07 01:08 39.47139 -75.57372 31681 ft 489 kts 29°
2026-05-07 01:08 39.49750 -75.54496 31987 ft 491 kts 29°
2026-05-07 01:09 39.52360 -75.51612 32336 ft 492 kts 29°
2026-05-07 01:09 39.54932 -75.48769 32643 ft 493 kts 28°
2026-05-07 01:09 39.57563 -75.45860 32931 ft 495 kts 28°
2026-05-07 01:09 39.60148 -75.42998 33241 ft 496 kts 28°
2026-05-07 01:10 39.62780 -75.40085 33509 ft 498 kts 27°
2026-05-07 01:10 39.65435 -75.37144 33779 ft 500 kts 27°
2026-05-07 01:10 39.68073 -75.34228 34027 ft 502 kts 28°
2026-05-07 01:10 39.70731 -75.31277 34152 ft 506 kts 29°
2026-05-07 01:11 39.73415 -75.28284 34350 ft 509 kts 29°
2026-05-07 01:11 39.76074 -75.25312 34610 ft 509 kts 28°
2026-05-07 01:11 39.78734 -75.22194 34840 ft 516 kts 32°
2026-05-07 01:11 39.81234 -75.18860 35064 ft 524 kts 36°
2026-05-07 01:12 39.83660 -75.15321 35356 ft 526 kts 38°
2026-05-07 01:12 39.86042 -75.11731 35667 ft 525 kts 38°
2026-05-07 01:12 39.88403 -75.08158 35969 ft 523 kts 38°
2026-05-07 01:12 39.90775 -75.04592 36304 ft 520 kts 38°
2026-05-07 01:13 39.93130 -75.01066 36575 ft 519 kts 37°
2026-05-07 01:13 39.95506 -74.97490 36830 ft 520 kts 38°
2026-05-07 01:13 39.97754 -74.93795 36863 ft 528 kts 43°
2026-05-07 01:14 40.01901 -74.85856 36863 ft 534 kts 47°
2026-05-07 01:14 40.05976 -74.77721 36868 ft 534 kts 46°
2026-05-07 01:15 40.09999 -74.69737 36864 ft 528 kts 45°
2026-05-07 01:15 40.14071 -74.61743 36863 ft 533 kts 46°
2026-05-07 01:16 40.18223 -74.53832 36862 ft 521 kts 40°
2026-05-07 01:16 40.22910 -74.46866 36864 ft 505 kts 31°
2026-05-07 01:17 40.28144 -74.40900 36862 ft 496 kts 25°
2026-05-07 01:17 40.33506 -74.35277 36860 ft 494 kts 24°
2026-05-07 01:18 40.38849 -74.29611 36860 ft 497 kts 26°
2026-05-07 01:18 40.44184 -74.23882 36860 ft 497 kts 26°
2026-05-07 01:19 40.49526 -74.18046 36856 ft 505 kts 30°
2026-05-07 01:19 40.51994 -74.14730 36853 ft 517 kts 38°
2026-05-07 01:19 40.54207 -74.10974 36859 ft 529 kts 46°
2026-05-07 01:20 40.57626 -74.02247 36854 ft 547 kts 64°
2026-05-07 01:20 40.59814 -73.92629 36852 ft 553 kts 70°
2026-05-07 01:21 40.61961 -73.83038 36842 ft 546 kts 64°
2026-05-07 01:21 40.64951 -73.73973 36838 ft 537 kts 53°
2026-05-07 01:22 40.68795 -73.65677 36843 ft 528 kts 47°
2026-05-07 01:22 40.72850 -73.57647 36843 ft 527 kts 47°
2026-05-07 01:23 40.76876 -73.49580 36848 ft 530 kts 47°
2026-05-07 01:23 40.80876 -73.41450 36850 ft 529 kts 47°
2026-05-07 01:24 40.84879 -73.33299 36380 ft 535 kts 49°
2026-05-07 01:24 40.86887 -73.29195 35837 ft 534 kts 49°
2026-05-07 01:24 40.88891 -73.25073 35148 ft 533 kts 49°
2026-05-07 01:24 40.90890 -73.20973 34234 ft 538 kts 49°
2026-05-07 01:25 40.92928 -73.16788 33578 ft 536 kts 49°
2026-05-07 01:25 40.94912 -73.12701 33130 ft 532 kts 50°
2026-05-07 01:25 40.96890 -73.08610 32697 ft 527 kts 50°
2026-05-07 01:25 40.98867 -73.04523 32247 ft 523 kts 50°
2026-05-07 01:26 41.00805 -73.00518 31794 ft 520 kts 50°
2026-05-07 01:26 41.02742 -72.96507 31351 ft 516 kts 50°
2026-05-07 01:26 41.04657 -72.92529 30945 ft 511 kts 50°
2026-05-07 01:26 41.06551 -72.88604 30501 ft 508 kts 50°
2026-05-07 01:27 41.08443 -72.84665 30092 ft 504 kts 51°
2026-05-07 01:27 41.10310 -72.80785 29670 ft 500 kts 50°
2026-05-07 01:27 41.12152 -72.76949 29253 ft 497 kts 50°
2026-05-07 01:27 41.13987 -72.73122 28867 ft 492 kts 50°
2026-05-07 01:28 41.15835 -72.69270 28451 ft 489 kts 50°
2026-05-07 01:28 41.17629 -72.65530 28029 ft 486 kts 51°
2026-05-07 01:28 41.19435 -72.61754 27616 ft 483 kts 50°
2026-05-07 01:28 41.21218 -72.58011 27230 ft 479 kts 50°
2026-05-07 01:29 41.22984 -72.54300 26812 ft 476 kts 50°
2026-05-07 01:29 41.24752 -72.50582 26416 ft 472 kts 51°
2026-05-07 01:29 41.26483 -72.46946 26018 ft 469 kts 51°
2026-05-07 01:29 41.28228 -72.43273 25610 ft 466 kts 51°
2026-05-07 01:30 41.29931 -72.39688 25224 ft 462 kts 51°
2026-05-07 01:30 41.31634 -72.36093 24810 ft 460 kts 51°
2026-05-07 01:30 41.33344 -72.32478 24416 ft 456 kts 52°
2026-05-07 01:30 41.35017 -72.28941 24020 ft 452 kts 52°
2026-05-07 01:31 41.36681 -72.25418 23632 ft 449 kts 52°
2026-05-07 01:31 41.38327 -72.21924 23237 ft 445 kts 52°
2026-05-07 01:31 41.39951 -72.18475 22840 ft 442 kts 53°
2026-05-07 01:31 41.41570 -72.15029 22453 ft 439 kts 52°
2026-05-07 01:32 41.43177 -72.11617 22063 ft 435 kts 53°
2026-05-07 01:32 41.44789 -72.08187 21674 ft 432 kts 53°
2026-05-07 01:32 41.46355 -72.04848 21291 ft 429 kts 54°
2026-05-07 01:32 41.47928 -72.01489 20905 ft 425 kts 54°
2026-05-07 01:33 41.49494 -71.98148 20511 ft 422 kts 54°
2026-05-07 01:33 41.51029 -71.94862 20126 ft 419 kts 54°
2026-05-07 01:33 41.52546 -71.91608 19751 ft 416 kts 55°
2026-05-07 01:33 41.54072 -71.88341 19376 ft 412 kts 56°
2026-05-07 01:34 41.55579 -71.85105 19010 ft 409 kts 56°
2026-05-07 01:34 41.57061 -71.81917 18648 ft 405 kts 56°
2026-05-07 01:34 41.58550 -71.78715 18293 ft 402 kts 56°
2026-05-07 01:34 41.60006 -71.75578 17944 ft 398 kts 57°
2026-05-07 01:35 41.61457 -71.72446 17606 ft 395 kts 57°
2026-05-07 01:35 41.62878 -71.69375 17273 ft 392 kts 57°
2026-05-07 01:35 41.64301 -71.66299 16930 ft 389 kts 57°
2026-05-07 01:35 41.65720 -71.63223 16603 ft 386 kts 57°
2026-05-07 01:36 41.67104 -71.60194 16278 ft 383 kts 59°
2026-05-07 01:36 41.68319 -71.57069 15952 ft 381 kts 65°
2026-05-07 01:36 41.69339 -71.53812 15586 ft 379 kts 69°
2026-05-07 01:36 41.70282 -71.50517 15241 ft 376 kts 69°
2026-05-07 01:37 41.71204 -71.47266 14912 ft 373 kts 69°
2026-05-07 01:37 41.72152 -71.44065 14588 ft 371 kts 66°
2026-05-07 01:37 41.73285 -71.40973 14245 ft 369 kts 60°
2026-05-07 01:37 41.74532 -71.38017 13919 ft 366 kts 58°
2026-05-07 01:38 41.75818 -71.35064 13590 ft 364 kts 58°
2026-05-07 01:38 41.77069 -71.32164 13256 ft 362 kts 60°
2026-05-07 01:38 41.78307 -71.29272 12931 ft 359 kts 59°
2026-05-07 01:38 41.79545 -71.26386 12601 ft 357 kts 59°
2026-05-07 01:39 41.80776 -71.23515 12274 ft 354 kts 60°
2026-05-07 01:39 41.81994 -71.20665 11936 ft 352 kts 60°
2026-05-07 01:39 41.83209 -71.17810 11586 ft 351 kts 60°
2026-05-07 01:39 41.84412 -71.14973 11236 ft 348 kts 60°
2026-05-07 01:40 41.85589 -71.12197 10950 ft 342 kts 59°
2026-05-07 01:40 41.86768 -71.09457 10960 ft 338 kts 59°
2026-05-07 01:40 41.87938 -71.06754 10982 ft 338 kts 59°
2026-05-07 01:40 41.89127 -71.04012 11005 ft 338 kts 59°
2026-05-07 01:41 41.90309 -71.01287 11015 ft 339 kts 59°
2026-05-07 01:41 41.91494 -70.98539 11021 ft 338 kts 59°
2026-05-07 01:41 41.92667 -70.95815 11024 ft 338 kts 59°
2026-05-07 01:41 41.93836 -70.93102 11023 ft 340 kts 60°
2026-05-07 01:42 41.95015 -70.90356 11022 ft 339 kts 59°
2026-05-07 01:42 41.96200 -70.87597 11015 ft 340 kts 59°
2026-05-07 01:42 41.97372 -70.84863 10997 ft 341 kts 59°
2026-05-07 01:42 41.98557 -70.82101 10727 ft 342 kts 60°
2026-05-07 01:43 41.99726 -70.79366 10381 ft 340 kts 59°
2026-05-07 01:43 42.00968 -70.76649 10034 ft 337 kts 54°
2026-05-07 01:43 42.02389 -70.74202 9737 ft 332 kts 47°
2026-05-07 01:43 42.03909 -70.71908 9438 ft 328 kts 45°
2026-05-07 01:44 42.05441 -70.69658 9128 ft 324 kts 45°
2026-05-07 01:44 42.06972 -70.67404 8813 ft 321 kts 46°
2026-05-07 01:44 42.08461 -70.65189 8505 ft 318 kts 46°
2026-05-07 01:44 42.09925 -70.63021 8193 ft 315 kts 43°
2026-05-07 01:45 42.11682 -70.61352 7884 ft 305 kts 16°
2026-05-07 01:45 42.13742 -70.60606 7910 ft 304 kts
2026-05-07 01:45 42.15818 -70.60083 7800 ft 305 kts
2026-05-07 01:45 42.17905 -70.59572 7450 ft 305 kts
2026-05-07 01:46 42.19959 -70.59042 7094 ft 303 kts
2026-05-07 01:46 42.22038 -70.58482 6762 ft 300 kts
2026-05-07 01:46 42.24060 -70.57925 6423 ft 298 kts
2026-05-07 01:46 42.26102 -70.57357 6101 ft 296 kts
2026-05-07 01:47 42.28107 -70.56793 5763 ft 294 kts
2026-05-07 01:47 42.30103 -70.56233 5430 ft 293 kts
2026-05-07 01:47 42.32074 -70.55901 5066 ft 282 kts 346°
2026-05-07 01:47 42.33779 -70.56824 4980 ft 251 kts 313°
2026-05-07 01:48 42.34986 -70.58441 4987 ft 245 kts 307°
2026-05-07 01:48 42.36176 -70.60097 4986 ft 244 kts 307°
2026-05-07 01:48 42.37372 -70.61723 4979 ft 243 kts 308°
2026-05-07 01:48 42.38561 -70.63313 4981 ft 241 kts 308°
2026-05-07 01:49 42.39755 -70.64896 4978 ft 240 kts 308°
2026-05-07 01:49 42.40951 -70.66484 4978 ft 239 kts 309°
2026-05-07 01:49 42.42131 -70.68042 4977 ft 238 kts 308°
2026-05-07 01:49 42.43327 -70.69617 4980 ft 238 kts 308°
2026-05-07 01:50 42.44504 -70.71174 4974 ft 237 kts 309°
2026-05-07 01:50 42.45678 -70.72725 4972 ft 237 kts 309°
2026-05-07 01:50 42.46868 -70.74295 4971 ft 237 kts 309°
2026-05-07 01:50 42.48044 -70.75847 4969 ft 237 kts 309°
2026-05-07 01:51 42.49230 -70.77412 4974 ft 237 kts 308°
2026-05-07 01:51 42.50399 -70.78959 4981 ft 237 kts 309°
2026-05-07 01:51 42.51579 -70.80510 4980 ft 236 kts 311°
2026-05-07 01:51 42.53007 -70.81609 4965 ft 247 kts 343°
2026-05-07 01:52 42.54768 -70.81361 4985 ft 260 kts 14°
2026-05-07 01:52 42.56446 -70.80462 4986 ft 260 kts 18°
2026-05-07 01:52 42.58107 -70.79527 4985 ft 256 kts 17°
2026-05-07 01:52 42.59753 -70.78642 4983 ft 253 kts 15°
2026-05-07 01:53 42.61388 -70.77802 4986 ft 250 kts 15°
2026-05-07 01:53 42.63022 -70.77019 4980 ft 245 kts
2026-05-07 01:53 42.64636 -70.77072 4960 ft 225 kts 328°
2026-05-07 01:53 42.65735 -70.78386 4981 ft 207 kts 291°
2026-05-07 01:54 42.66061 -70.80206 4995 ft 199 kts 264°
2026-05-07 01:54 42.65689 -70.81990 4985 ft 197 kts 238°
2026-05-07 01:54 42.64745 -70.83254 5001 ft 186 kts 213°
2026-05-07 01:54 42.63477 -70.83730 5021 ft 196 kts 189°
2026-05-07 01:55 42.62118 -70.83727 5019 ft 193 kts 192°
2026-05-07 01:55 42.60929 -70.84213 4983 ft 168 kts 216°
2026-05-07 01:55 42.60151 -70.85232 4952 ft 145 kts 240°
2026-05-07 01:55 42.59704 -70.86402 4781 ft 137 kts 245°
2026-05-07 01:56 42.59308 -70.87553 4459 ft 134 kts 246°
2026-05-07 01:56 42.58917 -70.88686 4183 ft 134 kts 242°
2026-05-07 01:56 42.58313 -70.89644 3929 ft 134 kts 224°
2026-05-07 01:56 42.57502 -70.90257 3729 ft 133 kts 211°
2026-05-07 01:57 42.56648 -70.90700 3544 ft 130 kts 209°
2026-05-07 01:57 42.55802 -70.91130 3428 ft 129 kts 208°
2026-05-07 01:57 42.54957 -70.91553 3345 ft 129 kts 209°
2026-05-07 01:57 42.54114 -70.91972 3254 ft 129 kts 209°
2026-05-07 01:58 42.53266 -70.92389 3157 ft 129 kts 208°
2026-05-07 01:58 42.52428 -70.92796 3096 ft 129 kts 208°
2026-05-07 01:58 42.51579 -70.93206 2938 ft 128 kts 208°
2026-05-07 01:58 42.50738 -70.93613 2774 ft 128 kts 207°
2026-05-07 01:59 42.49897 -70.94020 2608 ft 128 kts 207°
2026-05-07 01:59 42.49056 -70.94428 2425 ft 128 kts 207°
2026-05-07 01:59 42.48220 -70.94831 2254 ft 127 kts 207°
2026-05-07 01:59 42.47388 -70.95232 2091 ft 127 kts 207°
2026-05-07 02:00 42.46557 -70.95636 1909 ft 127 kts 205°
2026-05-07 02:00 42.45719 -70.96040 1753 ft 127 kts 205°
2026-05-07 02:00 42.44890 -70.96442 1582 ft 126 kts 204°
2026-05-07 02:00 42.44060 -70.96841 1393 ft 126 kts 204°
2026-05-07 02:01 42.43243 -70.97237 1236 ft 126 kts 204°
2026-05-07 02:01 42.42412 -70.97640 1075 ft 126 kts 204°
2026-05-07 02:01 42.41588 -70.98038 899 ft 125 kts 203°
2026-05-07 02:01 42.40769 -70.98434 734 ft 125 kts 203°
2026-05-07 02:02 42.39951 -70.98832 572 ft 124 kts 202°
2026-05-07 02:02 42.39145 -70.99221 411 ft 124 kts 202°
2026-05-07 02:02 42.38329 -70.99618 237 ft 123 kts 201°
2026-05-07 02:02 42.37522 -71.00011 75 ft 122 kts 201°
2026-05-07 02:03 42.36769 -71.00378 12 ft 93 kts 200°
2026-05-07 02:03 42.36318 -71.00594 15 ft 54 kts 199°
2026-05-07 02:03 42.36044 -71.00733 16 ft 28 kts 214°
2026-05-07 02:03 42.35920 -71.00908 18 ft 24 kts 229°
2026-05-07 02:04 42.35841 -71.01043 18 ft 12 kts 249°
2026-05-07 02:04 42.35825 -71.01155 18 ft 11 kts 288°
2026-05-07 02:04 42.35847 -71.01257 20 ft 10 kts 277°
2026-05-07 02:04 42.35847 -71.01267 20 ft 0 kts 276°
2026-05-07 02:05 42.35849 -71.01278 20 ft 4 kts 276°
2026-05-07 02:05 42.35859 -71.01378 21 ft 16 kts 278°
2026-05-07 02:05 42.35884 -71.01571 20 ft 22 kts 281°
2026-05-07 02:06 42.35912 -71.01774 18 ft 20 kts 285°
2026-05-07 02:06 42.35970 -71.01939 18 ft 16 kts 301°
2026-05-07 02:06 42.36016 -71.02046 17 ft 13 kts 298°
2026-05-07 02:06 42.36069 -71.02163 15 ft 15 kts 302°
2026-05-07 02:07 42.36123 -71.02263 15 ft 11 kts 326°
2026-05-07 02:07 42.36267 -71.02204 15 ft 12 kts 69°